Time,TemperatureF,DewpointF,PressureIn,WindDirection,WindDirectionDegrees,WindSpeedMPH,WindSpeedGustMPH,Humidity,HourlyPrecipIn,Conditions,Clouds,dailyrainin,SoftwareType,DateUTC
2013-01-25 00:09:00,10.7,-1.0,30.38,WNW,292,0.0,8.0,59,0.00,,,0.00,weatherlink.com 1.10,2013-01-25 05:09:00,
2013-01-25 00:25:00,10.5,-1.0,30.38,NNW,329,1.0,5.0,59,0.00,,,0.00,weatherlink.com 1.10,2013-01-25 05:25:00,
2013-01-25 00:40:00,10.4,-1.0,30.38,NNW,340,2.0,7.0,60,0.00,,,0.00,weatherlink.com 1.10,2013-01-25 05:40:00,
2013-01-25 00:55:00,10.2,-1.0,30.39,NW,317,4.0,7.0,60,0.00,,,0.00,weatherlink.com 1.10,2013-01-25 05:55:00,
2013-01-25 01:12:00,10.1,-1.0,30.38,NW,314,1.0,8.0,61,0.00,,,0.00,weatherlink.com 1.10,2013-01-25 06:12:00,
2013-01-25 01:27:00,9.8,-1.0,30.38,NW,313,3.0,6.0,62,0.00,,,0.00,weatherlink.com 1.10,2013-01-25 06:27:00,
2013-01-25 01:42:00,9.8,-1.0,30.38,NW,321,2.0,9.0,63,0.00,,,0.00,weatherlink.com 1.10,2013-01-25 06:42:00,
2013-01-25 01:57:00,9.7,-1.0,30.38,WNW,296,0.0,6.0,63,0.00,,,0.00,weatherlink.com 1.10,2013-01-25 06:57:00,
2013-01-25 02:13:00,9.6,-1.0,30.39,NW,321,0.0,4.0,63,0.00,,,0.00,weatherlink.com 1.10,2013-01-25 07:13:00,
2013-01-25 02:29:00,9.2,-1.0,30.40,WNW,300,0.0,1.0,64,0.00,,,0.00,weatherlink.com 1.10,2013-01-25 07:29:00,
2013-01-25 02:44:00,9.1,-1.0,30.40,North,355,0.0,8.0,64,0.00,,,0.00,weatherlink.com 1.10,2013-01-25 07:44:00,
2013-01-25 02:59:00,9.0,-1.0,30.40,NW,307,1.0,5.0,65,0.00,,,0.00,weatherlink.com 1.10,2013-01-25 07:59:00,
2013-01-25 03:14:00,9.0,0.0,30.39,NW,316,3.0,3.0,66,0.00,,,0.00,weatherlink.com 1.10,2013-01-25 08:14:00,
2013-01-25 03:29:00,9.0,0.0,30.39,NNW,343,0.0,4.0,67,0.00,,,0.00,weatherlink.com 1.10,2013-01-25 08:29:00,
2013-01-25 03:44:00,8.9,0.0,30.39,NNW,347,1.0,2.0,67,0.00,,,0.00,weatherlink.com 1.10,2013-01-25 08:44:00,
2013-01-25 04:00:00,8.7,0.0,30.39,WNW,292,0.0,4.0,68,0.00,,,0.00,weatherlink.com 1.10,2013-01-25 09:00:00,
2013-01-25 04:15:00,8.5,0.0,30.39,NNW,329,0.0,4.0,68,0.00,,,0.00,weatherlink.com 1.10,2013-01-25 09:15:00,
2013-01-25 04:30:00,8.4,0.0,30.39,NW,323,0.0,2.0,69,0.00,,,0.00,weatherlink.com 1.10,2013-01-25 09:30:00,
2013-01-25 04:47:00,8.4,0.0,30.40,NW,318,0.0,5.0,69,0.00,,,0.00,weatherlink.com 1.10,2013-01-25 09:47:00,
2013-01-25 05:02:00,8.3,0.0,30.41,NNW,335,0.0,4.0,69,0.00,,,0.00,weatherlink.com 1.10,2013-01-25 10:02:00,
2013-01-25 05:17:00,8.2,0.0,30.40,NW,313,0.0,1.0,70,0.00,,,0.00,weatherlink.com 1.10,2013-01-25 10:17:00,
2013-01-25 05:32:00,8.0,0.0,30.40,NW,313,0.0,1.0,70,0.00,,,0.00,weatherlink.com 1.10,2013-01-25 10:32:00,
2013-01-25 05:47:00,7.8,0.0,30.41,NW,313,0.0,0.0,71,0.00,,,0.00,weatherlink.com 1.10,2013-01-25 10:47:00,
2013-01-25 06:04:00,7.8,1.0,30.40,NW,313,0.0,0.0,72,0.00,,,0.00,weatherlink.com 1.10,2013-01-25 11:04:00,
2013-01-25 06:19:00,7.6,0.0,30.41,NW,313,0.0,0.0,72,0.00,,,0.00,weatherlink.com 1.10,2013-01-25 11:19:00,
2013-01-25 06:33:00,7.4,0.0,30.41,North,360,0.0,1.0,72,0.00,,,0.00,weatherlink.com 1.10,2013-01-25 11:33:00,
2013-01-25 06:49:00,7.7,0.0,30.42,North,360,0.0,1.0,72,0.00,,,0.00,weatherlink.com 1.10,2013-01-25 11:49:00,
2013-01-25 07:04:00,8.0,1.0,30.43,NW,310,0.0,2.0,73,0.00,,,0.00,weatherlink.com 1.10,2013-01-25 12:04:00,
2013-01-25 07:20:00,8.0,1.0,30.42,NNW,339,0.0,2.0,72,0.00,,,0.00,weatherlink.com 1.10,2013-01-25 12:20:00,
2013-01-25 07:35:00,8.3,1.0,30.42,NW,322,0.0,2.0,72,0.00,,,0.00,weatherlink.com 1.10,2013-01-25 12:35:00,
2013-01-25 07:50:00,8.6,1.0,30.42,NW,304,3.0,3.0,72,0.00,,,0.00,weatherlink.com 1.10,2013-01-25 12:50:00,
2013-01-25 08:05:00,9.0,1.0,30.41,NW,309,0.0,3.0,71,0.00,,,0.00,weatherlink.com 1.10,2013-01-25 13:05:00,
2013-01-25 08:22:00,9.5,2.0,30.41,NW,310,1.0,2.0,71,0.00,,,0.00,weatherlink.com 1.10,2013-01-25 13:22:00,
2013-01-25 08:37:00,10.2,2.0,30.41,NNW,342,2.0,3.0,69,0.00,,,0.00,weatherlink.com 1.10,2013-01-25 13:37:00,
2013-01-25 08:52:00,11.0,2.0,30.41,NW,309,0.0,3.0,68,0.00,,,0.00,weatherlink.com 1.10,2013-01-25 13:52:00,
2013-01-25 09:07:00,11.8,2.0,30.41,NW,313,1.0,2.0,66,0.00,,,0.00,weatherlink.com 1.10,2013-01-25 14:07:00,
2013-01-25 09:24:00,12.8,3.0,30.41,NNW,345,2.0,6.0,64,0.00,,,0.00,weatherlink.com 1.10,2013-01-25 14:24:00,
2013-01-25 09:38:00,13.3,3.0,30.41,NW,318,0.0,7.0,63,0.00,,,0.00,weatherlink.com 1.10,2013-01-25 14:38:00,
2013-01-25 09:53:00,14.5,3.0,30.41,NW,305,3.0,5.0,61,0.00,,,0.00,weatherlink.com 1.10,2013-01-25 14:53:00,
2013-01-25 10:09:00,15.3,3.0,30.41,West,273,0.0,8.0,58,0.00,,,0.00,weatherlink.com 1.10,2013-01-25 15:09:00,
2013-01-25 10:24:00,17.3,4.0,30.42,WNW,288,3.0,4.0,57,0.00,,,0.00,weatherlink.com 1.10,2013-01-25 15:24:00,
2013-01-25 10:40:00,19.3,5.0,30.42,NNW,340,0.0,5.0,53,0.00,,,0.00,weatherlink.com 1.10,2013-01-25 15:40:00,
2013-01-25 10:55:00,19.7,4.0,30.41,SSW,202,1.0,5.0,51,0.00,,,0.00,weatherlink.com 1.10,2013-01-25 15:55:00,
2013-01-25 11:11:00,20.4,4.0,30.39,WNW,288,0.0,4.0,50,0.00,,,0.00,weatherlink.com 1.10,2013-01-25 16:11:00,
2013-01-25 11:25:00,20.9,4.0,30.38,SW,232,0.0,4.0,48,0.00,,,0.00,weatherlink.com 1.10,2013-01-25 16:25:00,
2013-01-25 11:41:00,20.4,2.0,30.37,NNW,331,0.0,5.0,45,0.00,,,0.00,weatherlink.com 1.10,2013-01-25 16:41:00,
2013-01-25 11:57:00,20.9,2.0,30.36,NW,326,1.0,4.0,44,0.00,,,0.00,weatherlink.com 1.10,2013-01-25 16:57:00,
2013-01-25 12:12:00,21.6,2.0,30.34,NW,321,0.0,5.0,43,0.00,,,0.00,weatherlink.com 1.10,2013-01-25 17:12:00,
2013-01-25 12:27:00,22.1,4.0,30.33,NW,318,1.0,3.0,45,0.00,,,0.00,weatherlink.com 1.10,2013-01-25 17:27:00,
2013-01-25 12:43:00,22.6,3.0,30.32,West,260,0.0,3.0,42,0.00,,,0.00,weatherlink.com 1.10,2013-01-25 17:43:00,
2013-01-25 12:59:00,22.2,2.0,30.32,WNW,298,0.0,1.0,42,0.00,,,0.00,weatherlink.com 1.10,2013-01-25 17:59:00,
2013-01-25 13:14:00,22.4,2.0,30.30,NNW,336,0.0,3.0,41,0.00,,,0.00,weatherlink.com 1.10,2013-01-25 18:14:00,
2013-01-25 13:29:00,21.9,1.0,30.29,NW,313,0.0,1.0,40,0.00,,,0.00,weatherlink.com 1.10,2013-01-25 18:29:00,
2013-01-25 13:44:00,22.0,0.0,30.29,West,273,0.0,2.0,39,0.00,,,0.00,weatherlink.com 1.10,2013-01-25 18:44:00,
2013-01-25 13:59:00,21.7,1.0,30.28,WNW,286,0.0,2.0,41,0.00,,,0.00,weatherlink.com 1.10,2013-01-25 18:59:00,
2013-01-25 14:15:00,22.1,2.0,30.27,NNW,338,0.0,2.0,41,0.00,,,0.00,weatherlink.com 1.10,2013-01-25 19:15:00,
2013-01-25 14:31:00,23.0,1.0,30.27,NW,322,0.0,3.0,39,0.00,,,0.00,weatherlink.com 1.10,2013-01-25 19:31:00,
2013-01-25 14:45:00,21.6,-2.0,30.26,East,80,0.0,2.0,36,0.00,,,0.00,weatherlink.com 1.10,2013-01-25 19:45:00,
2013-01-25 15:00:00,22.4,1.0,30.25,WSW,255,0.0,2.0,39,0.00,,,0.00,weatherlink.com 1.10,2013-01-25 20:00:00,
2013-01-25 15:17:00,22.7,1.0,30.24,West,261,0.0,1.0,39,0.00,,,0.00,weatherlink.com 1.10,2013-01-25 20:17:00,
2013-01-25 15:32:00,21.4,-1.0,30.24,NE,44,0.0,1.0,38,0.00,,,0.00,weatherlink.com 1.10,2013-01-25 20:32:00,
2013-01-25 15:47:00,20.9,-1.0,30.24,NE,44,0.0,1.0,39,0.00,,,0.00,weatherlink.com 1.10,2013-01-25 20:47:00,
2013-01-25 16:02:00,21.1,2.0,30.24,NE,38,0.0,1.0,43,0.00,,,0.00,weatherlink.com 1.10,2013-01-25 21:02:00,
2013-01-25 16:19:00,20.9,1.0,30.23,WSW,247,0.0,1.0,42,0.00,,,0.00,weatherlink.com 1.10,2013-01-25 21:19:00,
2013-01-25 16:33:00,20.8,1.0,30.23,West,272,0.0,2.0,42,0.00,,,0.00,weatherlink.com 1.10,2013-01-25 21:33:00,
2013-01-25 16:49:00,20.7,2.0,30.23,West,272,0.0,1.0,44,0.00,,,0.00,weatherlink.com 1.10,2013-01-25 21:49:00,
2013-01-25 17:03:00,20.4,1.0,30.20,North,360,0.0,2.0,43,0.00,,,0.00,weatherlink.com 1.10,2013-01-25 22:03:00,
2013-01-25 17:19:00,20.2,0.0,30.20,North,5,0.0,0.0,42,0.00,,,0.00,weatherlink.com 1.10,2013-01-25 22:19:00,
2013-01-25 17:34:00,19.9,1.0,30.20,North,5,0.0,0.0,43,0.00,,,0.00,weatherlink.com 1.10,2013-01-25 22:34:00,
2013-01-25 17:50:00,19.9,1.0,30.20,North,5,0.0,0.0,44,0.00,,,0.00,weatherlink.com 1.10,2013-01-25 22:50:00,
2013-01-25 18:05:00,19.8,1.0,30.19,North,5,0.0,1.0,44,0.00,,,0.00,weatherlink.com 1.10,2013-01-25 23:05:00,
2013-01-25 18:20:00,19.8,2.0,30.18,North,5,0.0,0.0,45,0.00,,,0.00,weatherlink.com 1.10,2013-01-25 23:20:00,
2013-01-25 18:35:00,19.8,2.0,30.17,SE,144,0.0,3.0,47,0.00,,,0.00,weatherlink.com 1.10,2013-01-25 23:35:00,
2013-01-25 18:52:00,19.9,8.0,30.17,West,273,0.0,2.0,59,0.00,,,0.00,weatherlink.com 1.10,2013-01-25 23:52:00,
2013-01-25 19:07:00,19.7,9.0,30.16,West,273,0.0,2.0,62,0.00,,,0.00,weatherlink.com 1.10,2013-01-26 00:07:00,
2013-01-25 19:39:00,18.3,11.0,30.15,SW,234,1.0,2.0,72,0.00,,,0.00,weatherlink.com 1.10,2013-01-26 00:39:00,
2013-01-25 19:54:00,17.9,11.0,30.15,SSW,211,0.0,3.0,75,0.00,,,0.00,weatherlink.com 1.10,2013-01-26 00:54:00,
2013-01-25 20:08:00,17.7,12.0,30.14,SW,232,1.0,2.0,77,0.00,,,0.00,weatherlink.com 1.10,2013-01-26 01:08:00,
2013-01-25 20:23:00,17.5,12.0,30.14,SW,232,0.0,1.0,78,0.00,,,0.00,weatherlink.com 1.10,2013-01-26 01:23:00,
2013-01-25 20:38:00,17.5,12.0,30.14,SW,232,0.0,1.0,78,0.00,,,0.00,weatherlink.com 1.10,2013-01-26 01:38:00,
2013-01-25 20:55:00,17.5,12.0,30.13,SW,232,0.0,1.0,79,0.00,,,0.00,weatherlink.com 1.10,2013-01-26 01:55:00,
2013-01-25 21:10:00,17.5,12.0,30.12,SW,232,0.0,0.0,80,0.00,,,0.00,weatherlink.com 1.10,2013-01-26 02:10:00,
2013-01-25 21:25:00,17.5,12.0,30.12,SW,232,0.0,0.0,80,0.00,,,0.00,weatherlink.com 1.10,2013-01-26 02:25:00,
2013-01-25 21:41:00,17.5,12.0,30.12,SW,232,0.0,0.0,80,0.00,,,0.00,weatherlink.com 1.10,2013-01-26 02:41:00,
2013-01-25 21:55:00,17.3,12.0,30.11,SW,232,0.0,0.0,80,0.00,,,0.00,weatherlink.com 1.10,2013-01-26 02:55:00,
2013-01-25 22:12:00,16.8,11.0,30.10,SW,232,0.0,0.0,79,0.00,,,0.00,weatherlink.com 1.10,2013-01-26 03:12:00,
2013-01-25 22:27:00,16.1,11.0,30.10,SW,232,0.0,0.0,79,0.00,,,0.00,weatherlink.com 1.10,2013-01-26 03:27:00,
2013-01-25 22:42:00,15.5,10.0,30.11,SW,232,0.0,0.0,80,0.00,,,0.00,weatherlink.com 1.10,2013-01-26 03:42:00,
2013-01-25 22:57:00,15.5,11.0,30.10,SW,232,0.0,0.0,81,0.00,,,0.00,weatherlink.com 1.10,2013-01-26 03:57:00,
2013-01-25 23:14:00,16.1,12.0,30.10,North,355,0.0,2.0,82,0.00,,,0.00,weatherlink.com 1.10,2013-01-26 04:14:00,
2013-01-25 23:29:00,16.4,12.0,30.10,North,355,0.0,3.0,83,0.00,,,0.00,weatherlink.com 1.10,2013-01-26 04:29:00,
2013-01-25 23:44:00,16.5,12.0,30.09,North,355,0.0,1.0,82,0.00,,,0.00,weatherlink.com 1.10,2013-01-26 04:44:00,
2013-01-25 23:58:00,16.6,12.0,30.09,NNW,329,0.0,2.0,82,0.00,,,0.00,weatherlink.com 1.10,2013-01-26 04:58:00,